Regional Weather Roundup
Issued by NWS Little Rock, AR

Home | Current Version | Previous Version | Text Only | Print | Product List | Glossary On
Versions: 1 2 3 4 5 6 7 8 9 10 11 12 13 14 15 16 17 18 19 20 21 22 23 24 25 26 27 28 29 30 31 32 33 34 35 36 37 38 39 40 41 42 43 44 45 46 47 48 49 50
000
ASUS44 KLZK 242005
RWRLZK

WEATHER ROUNDUP FOR ARKANSAS
NATIONAL WEATHER SERVICE LITTLE ROCK AR
300 PM CDT WED MAY 24 2017

NOTE: "FAIR" INDICATES FEW OR NO CLOUDS BELOW 12,000 FEET WITH NO
SIGNIFICANT WEATHER AND/OR OBSTRUCTIONS TO VISIBILITY.

ARZ001-003-010-029-242100-
NORTHWEST ARKANSAS

CITY           SKY/WX    TMP DP  RH WIND       PRES   REMARKS
FAYETTEVILLE   CLOUDY    61  47  59 NW15G24   29.72S
FORT SMITH     PTSUNNY   69  43  38 NW14      29.71F
HARRISON       CLOUDY    63  46  54 NW14G23   29.68S
BENTONVILLE    CLOUDY    59  43  55 NW12      29.73R
ROGERS         CLOUDY    60  47  61 W14       29.72S
SILOAM SPGS    CLOUDY    61  45  55 NW15      29.73S
HIGHFILL       CLOUDY    61  46  57 NW9       29.73S
SPRINGDALE     CLOUDY    63  45  51 NW13G21   29.73S
$$

ARZ004-005-016-242100-
NORTH CENTRAL ARKANSAS

CITY           SKY/WX    TMP DP  RH WIND       PRES   REMARKS
BATESVILLE     PTSUNNY   64  50  59 NW8       29.63F
FLIPPIN        CLOUDY    63  43  48 NW12G18   29.64S
$$

ARZ040-041-242100-
WEST CENTRAL ARKANSAS

CITY           SKY/WX    TMP DP  RH WIND       PRES   REMARKS
MENA           CLOUDY    68  46  45 W18       29.74S
MOUNT IDA      CLOUDY    66  45  46 NW10G16   29.69S
$$

ARZ009-017-025-026-028-242100-
NORTHEAST ARKANSAS

CITY           SKY/WX    TMP DP  RH WIND       PRES   REMARKS
JONESBORO      CLOUDY    59  53  80 W9        29.61S
WALNUT RIDGE   CLOUDY    61  50  67 NW12G22   29.61R
BLYTHEVILLE    CLOUDY    66  50  56 W10G22    29.56F
$$

ARZ022-023-033-042-044-242100-
CENTRAL ARKANSAS

CITY           SKY/WX    TMP DP  RH WIND       PRES   REMARKS
LITTLE ROCK    CLOUDY    69  49  48 NW18G26   29.65F
N LITTLE ROCK    N/A     65  51  62 W7        29.65S
JACKSONVILLE   MOSUNNY   70  53  54 W12G17    29.64S
CONWAY           N/A     72  46  40 NW14G20   29.63F
SEARCY         RAIN      58  52  80 CALM      29.65R
HOT SPRINGS    MOSUNNY   71  48  43 NW9G21    29.68F
RUSSELLVILLE   CLOUDY    67  45  45 W15G28    29.67R
CLINTON        DRIZZLE   59  52  77 W8G21     29.67R
$$

ARZ036-242100-
EAST ARKANSAS

CITY           SKY/WX    TMP DP  RH WIND       PRES   REMARKS
WEST MEMPHIS   CLOUDY    67  49  52 NW7       29.58F
$$

ARZ050-053-066-070-073-242100-
SOUTHWEST ARKANSAS

CITY           SKY/WX    TMP DP  RH WIND       PRES   REMARKS
ARKADELPHIA    MOCLDY    70  48  45 NW9G17    29.69F
CAMDEN         PTSUNNY   70  45  40 NW9G17    29.70S
TEXARKANA      PTSUNNY   70  47  43 NW15      29.73F
EL DORADO      CLOUDY    67  50  54 NW12G20   29.71F
DE QUEEN       PTSUNNY   70  49  47 NW13G20   29.72S
$$

ARZ056-057-069-242100-
SOUTHEAST ARKANSAS

CITY           SKY/WX    TMP DP  RH WIND       PRES   REMARKS
PINE BLUFF     CLOUDY    68  48  48 W21G26    29.65F
STUTTGART      PTSUNNY   68  45  42 W13       29.65R
MONTICELLO     PTSUNNY   69  52  54 W15       29.66S

$$





USA.gov is the U.S. government's official web portal to all federal, state and local government web resources and services.